Temperature
25 25 24 24 27 28 28 28 29 29 29 28 27 26 25 24 23 21 20 20 20 19 19 19 19 19 18 18 18 18 18 18 18 18 18 18 18 18 18 18 18 18 18 18 18 18 18 18 18
25 24 25 27 28 28 28 29 29 29 29 28 27 26 25 23 22 21 20 20 20 19 19 19 19 19 18 18 18 18 18 18 18 18 18 18 18 18 18 18 18 18 18 18 18 18 18 18 18
25 25 27 30 30 29 28 29 29 29 29 28 27 25 24 23 22 21 20 20 20 19 19 19 19 19 18 18 18 18 18 18 18 18 18 18 18 18 18 18 18 18 18 18 18 18 18 18 18
25 28 30 31 30 30 30 30 30 29 29 28 27 25 23 23 22 21 21 21 20 19 19 19 19 19 19 18 18 18 18 18 18 18 18 18 18 18 18 18 18 18 18 18 18 18 18 18 18
27 30 31 31 30 31 31 31 30 29 29 27 26 24 23 22 22 21 21 21 21 19 19 19 19 19 19 18 19 19 19 19 19 19 19 18 18 18 18 18 18 18 18 18 18 18 18 18 18
31 32 31 31 30 31 31 31 30 30 28 27 25 24 23 22 22 22 22 21 21 20 19 19 19 19 19 19 19 19 19 19 19 19 19 19 19 19 18 18 18 18 18 18 18 18 18 18 18
32 33 32 31 31 31 31 31 30 30 29 28 26 25 23 23 22 22 21 21 21 20 19 19 19 19 19 19 19 19 19 19 19 19 19 19 19 19 19 19 18 18 18 18 18 18 18 18 18
34 34 33 32 31 31 31 31 30 29 29 28 27 25 23 23 22 22 22 21 21 21 20 19 19 19 19 19 19 19 19 19 19 19 19 19 18 18 19 19 18 18 19 19 19 19 19 19 19
34 34 32 32 32 31 32 31 30 29 28 28 27 25 24 23 23 22 22 21 21 21 20 20 19 19 19 19 19 19 19 19 19 18 18 18 18 18 18 19 19 19 19 19 19 19 19 19 19
35 33 33 34 33 33 32 31 30 29 28 27 26 25 24 24 23 23 22 22 21 21 21 20 20 20 20 19 19 19 19 19 18 18 18 18 18 18 18 19 19 19 19 19 19 19 19 19 19
35 34 34 34 33 33 32 32 31 30 29 27 26 25 24 24 24 23 23 22 21 21 21 20 20 20 20 20 19 19 19 19 19 19 18 19 19 19 19 19 19 19 19 19 19 18 19 19 19
35 35 34 34 33 33 32 32 31 30 29 27 26 25 25 25 24 23 23 22 21 21 21 20 20 20 20 20 20 19 19 19 19 19 19 19 19 19 19 18 19 19 19 19 19 18 18 19 19
35 34 34 34 33 33 32 31 31 29 28 27 26 26 25 25 24 24 23 22 21 21 21 20 20 20 20 20 20 20 19 19 19 19 19 19 19 19 19 19 19 19 19 19 19 18 18 19 19
35 35 34 34 33 33 32 31 30 29 28 27 27 26 26 25 24 24 23 22 22 21 20 20 20 20 20 20 20 20 19 19 19 19 19 19 19 19 19 19 19 19 19 19 19 19 18 19 19
35 35 34 34 34 33 32 31 31 29 28 28 27 26 26 25 25 24 23 22 22 21 21 20 20 20 20 20 20 20 20 20 19 19 19 19 19 19 19 19 19 19 19 19 19 19 19 19 18
34 33 32 33 34 33 32 30 31 30 29 28 28 27 26 25 25 24 23 22 22 21 21 21 20 20 20 20 20 20 20 20 19 19 19 19 19 19 19 19 19 19 18 18 18 19 18 18 18
33 32 32 33 34 34 33 31 31 30 30 29 28 27 26 26 25 24 23 23 22 21 21 21 20 20 20 20 20 20 20 20 19 19 19 19 19 19 19 19 19 18 18 18 18 18 18 18 18
32 33 33 33 34 34 33 32 31 31 31 29 29 28 27 26 25 24 24 23 22 21 21 21 20 20 20 20 20 20 19 19 19 19 19 19 19 19 19 18 18 18 18 18 18 18 18 18 18
34 33 33 33 34 34 33 32 32 32 31 30 29 28 27 27 26 25 24 23 22 22 21 21 20 20 20 20 20 20 20 19 19 19 19 19 19 19 19 18 18 18 18 18 18 18 18 18 18
34 33 33 34 35 34 33 33 33 32 32 31 30 29 28 27 26 25 24 23 23 22 21 21 20 20 20 20 20 20 20 20 19 19 19 19 19 19 19 18 18 18 18 18 18 18 18 18 18
34 34 33 33 34 34 33 32 32 33 32 32 31 30 29 28 26 25 24 24 23 22 21 21 21 20 20 20 20 19 19 19 19 19 19 19 19 19 18 19 18 18 18 18 18 18 18 18 18
33 35 34 34 33 33 33 31 32 32 33 32 31 30 30 28 27 26 24 24 23 22 22 21 21 20 20 20 20 19 19 19 19 19 19 19 18 18 18 18 18 18 18 18 18 18 18 18 18
34 35 34 34 33 33 33 32 31 32 32 32 32 31 30 29 28 26 25 24 23 23 22 21 21 20 20 20 20 19 19 19 19 19 19 19 19 18 18 18 18 18 18 18 18 18 18 18 18
35 34 34 34 33 31 32 32 30 32 31 32 32 31 30 29 28 26 25 24 23 23 22 21 21 21 20 20 20 19 19 19 19 19 19 19 18 18 18 18 18 18 18 18 18 18 18 18 18
34 33 31 30 31 31 33 32 32 33 33 33 33 32 31 29 28 27 26 24 23 23 22 22 21 21 20 20 20 20 19 19 19 19 19 18 18 18 18 18 18 18 18 18 18 18 18 18 18
33 33 31 30 30 31 33 32 33 34 34 33 33 31 30 29 28 27 26 25 24 23 22 22 21 21 20 20 20 20 19 19 19 19 18 18 18 18 18 18 18 18 18 18 18 18 18 17 17
33 33 34 32 31 31 32 32 33 34 34 33 33 31 30 29 28 27 26 25 24 23 22 22 21 21 21 20 20 20 19 19 19 19 19 18 18 18 18 18 18 18 18 17 17 17 17 17 17
34 34 33 32 30 30 31 32 32 32 32 32 32 32 30 29 29 27 26 25 24 24 23 22 21 21 21 20 20 20 20 19 19 19 19 18 18 18 18 18 18 18 17 17 17 17 17 17 17
33 33 32 32 32 31 30 31 34 32 32 32 32 31 30 30 29 28 27 26 25 24 23 22 21 21 21 20 20 20 20 20 19 19 19 18 18 18 18 18 18 17 17 17 17 17 17 17 17
33 33 32 31 30 31 30 31 34 33 33 33 32 31 30 29 29 28 27 26 25 24 23 22 21 21 20 20 20 20 19 19 19 19 19 18 18 18 18 18 17 17 17 17 17 17 17 16 16
Wind_Speed
9 10 9 4 1 6 16 16 16 17 18 17 18 17 19 17 12 10 6 8 10 12 13 14 14 14 14 14 14 13 13 14 14 14 14 15 15 15 15 15 15 15 16 15 16 15 15 16 15
9 10 7 3 3 12 15 15 16 17 15 16 20 21 20 18 14 11 8 8 11 13 14 14 14 14 14 14 14 14 14 14 14 14 15 15 15 15 14 14 15 15 15 15 15 15 15 15 14
12 13 5 1 12 14 15 14 15 15 14 17 18 18 14 12 13 10 9 10 12 14 15 14 14 14 13 14 14 15 15 15 15 15 15 15 15 15 14 15 15 15 15 15 15 14 14 13 12
7 5 1 7 18 16 14 13 14 15 15 16 16 13 14 14 13 11 10 12 14 15 16 15 14 14 14 14 15 15 15 15 15 15 16 15 15 15 16 16 15 15 15 14 13 13 12 12 10
8 2 5 13 18 16 14 14 15 16 18 20 20 18 16 15 14 13 11 12 14 16 15 15 14 14 14 14 14 14 15 15 15 15 15 15 15 15 16 15 15 14 14 13 12 11 11 9 8
5 2 6 14 17 16 14 14 16 17 17 19 19 18 15 13 12 12 11 11 14 15 15 15 14 14 14 14 14 14 14 14 14 14 14 14 14 15 15 15 14 13 13 12 11 11 10 8 6
5 3 10 15 16 15 14 14 15 15 15 16 17 16 13 12 11 11 10 11 12 14 14 13 13 13 13 14 13 13 13 13 13 13 13 13 14 14 14 14 13 12 11 10 10 10 9 7 5
0 3 10 14 16 16 15 15 16 16 14 13 13 12 12 12 12 12 11 11 10 11 12 12 12 12 12 12 12 12 12 12 12 12 11 11 12 13 13 13 12 11 10 9 9 9 7 6 4
2 4 10 14 16 15 15 16 16 15 15 16 17 18 15 14 13 12 11 10 9 10 8 9 9 10 11 13 12 12 11 11 11 10 10 9 8 10 10 11 12 10 9 8 8 7 7 6 6
5 9 14 15 15 15 15 15 15 15 16 18 18 17 16 13 12 11 10 10 9 8 8 7 6 6 8 10 10 9 9 8 6 7 8 6 5 8 10 12 11 10 9 8 8 7 7 7 6
10 13 13 14 15 15 14 13 14 15 15 16 17 16 14 13 11 10 10 10 9 7 7 9 6 5 5 6 6 5 6 6 6 6 6 5 5 7 8 7 8 8 8 6 7 8 7 6 5
11 13 12 12 14 15 14 13 15 16 17 17 16 15 13 12 11 11 10 10 8 8 8 8 7 6 5 5 4 4 4 4 4 4 4 4 2 3 4 2 3 5 5 4 4 4 3 1 1
10 12 11 11 13 14 15 15 16 17 18 17 16 13 12 10 10 11 10 10 9 7 9 8 6 5 5 4 2 4 4 4 5 4 4 4 3 3 3 1 1 1 3 3 2 2 2 2 2
9 11 11 11 13 13 15 14 15 15 16 16 14 12 12 11 10 10 10 9 8 7 8 8 7 6 4 3 2 2 3 3 4 4 5 4 4 3 2 1 1 1 1 2 3 2 1 1 2
6 8 10 10 11 12 12 12 14 15 15 14 13 12 11 10 10 10 9 8 7 8 8 7 7 7 4 3 1 2 2 4 4 5 5 4 4 3 1 1 0 1 2 2 2 2 1 1 1
6 6 6 7 8 9 7 10 14 15 15 13 12 11 10 9 9 10 10 7 7 8 7 5 6 7 5 3 1 1 2 4 3 4 4 3 3 2 1 1 1 2 1 1 1 1 1 1 2
8 6 7 6 7 8 7 11 14 14 14 13 12 12 11 10 9 10 10 9 8 8 7 4 4 6 5 4 2 1 2 2 2 3 3 3 2 1 1 1 2 1 1 1 1 2 0 1 1
5 6 8 7 7 8 9 11 14 14 14 14 13 12 11 11 10 10 10 10 9 9 7 5 4 4 4 3 3 1 2 2 1 2 3 3 1 1 1 1 1 1 2 1 2 2 1 1 0
6 4 4 7 7 6 8 12 14 13 12 14 14 13 12 11 12 11 10 10 10 9 7 6 5 4 3 2 2 2 2 2 2 2 3 2 1 1 1 1 1 0 1 1 1 0 0 0 0
7 5 3 5 7 5 6 9 14 13 12 12 14 14 14 13 12 12 10 9 9 9 8 6 5 5 4 3 2 1 2 1 1 2 3 2 1 1 0 1 0 1 0 0 1 0 1 1 0
8 6 5 4 4 5 4 6 11 13 11 12 13 13 14 14 13 12 10 8 9 9 9 7 6 6 5 4 3 2 2 0 1 2 2 1 1 1 1 2 1 0 1 1 1 1 0 1 2
6 6 7 6 6 5 6 5 9 11 12 12 12 13 13 14 14 13 12 10 9 9 9 7 7 6 5 4 3 3 2 2 2 2 2 1 1 1 1 1 1 0 1 0 1 1 2 2 2
7 6 8 8 7 7 6 4 6 10 11 12 12 12 13 14 14 13 12 10 9 9 9 8 8 6 5 4 3 2 1 1 1 2 3 2 0 0 0 1 1 1 0 0 1 1 1 1 2
8 8 9 9 8 8 7 6 5 8 10 11 13 13 13 14 14 13 12 10 9 8 8 9 8 7 6 5 4 3 2 1 1 1 2 1 1 1 1 1 2 1 0 0 0 1 1 1 1
11 9 6 7 7 7 7 6 4 7 10 11 13 14 14 14 14 14 13 12 10 9 8 8 9 8 6 5 4 4 3 2 2 1 1 1 1 1 1 1 1 1 0 0 0 0 0 1 1
12 12 8 6 7 8 8 6 5 7 8 10 12 12 12 13 14 14 13 13 11 10 9 9 9 8 7 6 4 3 3 2 1 2 1 1 0 1 2 2 1 1 0 0 0 0 0 0 0
11 12 12 10 10 9 6 6 6 7 7 9 11 13 12 12 14 14 14 13 12 11 10 10 9 8 7 6 5 4 3 2 1 1 1 0 1 1 2 2 1 1 1 0 0 1 1 1 0
13 12 10 9 8 9 8 6 7 10 9 9 8 10 12 12 14 14 12 12 11 10 10 10 10 9 7 6 5 5 4 3 1 1 1 1 2 2 2 1 1 1 1 1 1 1 1 1 2
13 14 10 8 8 9 8 4 5 9 9 10 10 8 10 12 13 14 13 12 12 11 11 10 10 9 8 7 5 4 5 4 3 2 1 2 2 2 1 1 1 1 1 1 1 1 1 2 2
12 13 12 9 7 8 8 4 4 9 11 9 9 9 9 10 11 12 13 12 11 10 10 10 10 9 9 7 6 5 5 5 4 3 2 2 3 2 2 2 1 2 2 2 2 2 3 4 4
Wind_Direction
204 215 219 240 228 75 64 62 62 63 63 62 65 68 61 57 66 89 104 92 90 91 89 81 75 76 76 76 77 77 78 80 81 82 91 96 99 101 102 102 104 104 105 104 101 102 105 106 107
225 221 224 237 74 72 67 67 66 65 72 72 68 70 69 67 77 94 94 94 94 93 86 82 80 78 78 77 77 79 80 82 82 85 93 95 98 100 102 104 106 106 107 107 107 107 108 110 111
245 245 248 97 64 70 74 73 76 73 74 79 73 64 61 75 79 93 104 103 96 91 89 86 81 80 79 79 80 82 82 82 82 86 92 94 96 100 104 105 106 107 107 107 108 108 110 112 114
249 241 185 80 74 72 78 83 86 81 74 75 79 74 69 76 91 106 111 106 100 95 92 89 85 82 82 84 84 84 84 84 84 86 90 93 97 99 101 102 104 106 106 107 110 112 112 114 116
238 266 90 83 81 79 78 82 85 81 78 79 82 86 83 84 96 106 107 103 99 98 98 96 90 89 88 87 86 86 87 87 87 89 91 93 94 97 100 100 102 104 106 110 112 114 115 118 122
247 205 89 88 86 84 84 87 88 88 93 96 94 92 91 97 96 95 96 97 99 102 102 104 98 96 94 93 92 91 91 93 94 95 97 98 98 100 102 102 104 106 107 112 115 118 117 119 122
266 76 92 95 93 87 84 86 87 89 88 94 102 100 101 102 99 98 98 96 99 105 114 116 114 108 104 103 102 100 100 99 100 102 104 106 108 108 107 108 109 110 112 115 119 122 125 129 140
327 68 93 98 97 92 87 85 86 88 88 98 105 104 113 118 115 105 96 92 94 99 109 117 120 124 123 117 115 113 111 112 112 113 116 120 121 121 121 119 118 117 119 124 129 133 140 152 177
71 75 84 93 100 104 101 94 91 92 88 80 86 104 116 121 117 111 104 97 90 89 97 110 123 135 131 127 129 132 130 132 132 135 145 152 148 137 133 122 128 130 133 139 146 151 161 177 197
97 84 84 94 103 109 108 107 110 103 95 92 97 106 117 121 116 113 115 107 99 99 98 95 101 114 121 121 140 147 136 143 153 145 159 167 146 131 127 136 143 148 152 156 170 176 182 202 203
86 89 91 98 105 107 107 110 111 109 108 112 116 121 122 119 116 110 105 102 105 107 99 95 75 66 91 115 135 129 128 134 130 121 126 121 117 122 127 145 156 167 171 175 174 190 203 207 196
93 91 97 102 106 103 100 96 93 99 107 116 120 124 127 128 121 112 107 111 117 109 98 95 91 70 54 69 98 118 122 123 121 128 116 112 93 93 104 126 160 163 159 155 162 180 205 230 112
106 106 108 106 103 104 99 95 97 102 112 118 122 126 127 121 116 115 119 116 111 110 110 105 103 88 76 55 42 93 96 105 111 106 95 93 103 90 89 79 51 87 116 137 131 89 65 43 26
119 119 118 117 115 115 112 111 108 115 121 125 131 135 133 126 125 122 120 119 126 128 120 119 116 105 94 90 65 74 99 113 108 97 83 69 78 80 83 92 53 62 88 80 88 102 92 74 55
139 137 129 133 134 126 121 118 122 131 134 136 139 139 134 134 134 131 126 132 131 127 125 129 132 124 124 117 93 94 111 110 98 96 92 77 79 84 92 108 121 63 56 91 102 90 86 120 90
181 170 143 153 151 143 145 132 138 145 147 146 147 144 142 143 144 135 132 138 129 124 126 140 144 133 133 125 97 68 77 85 97 113 110 91 80 70 65 102 77 59 62 81 132 120 79 55 74
207 182 160 170 165 157 158 141 150 160 156 152 153 152 153 152 151 141 145 150 139 126 128 134 117 128 136 141 148 145 90 85 91 107 110 104 97 62 30 63 65 17 53 4 344 88 81 93 76
211 191 170 169 171 165 148 140 155 171 164 159 162 160 162 160 162 157 157 151 140 136 138 138 129 132 139 144 151 144 128 133 128 110 104 100 88 68 34 92 82 39 45 29 30 33 358 12 336
228 218 186 165 168 174 152 151 161 176 174 165 167 167 170 168 163 159 160 154 147 145 146 148 152 141 152 158 172 167 161 169 163 148 119 118 70 70 3 27 92 116 101 71 357 344 314 300 193
235 229 207 160 170 182 168 167 164 174 184 175 170 170 169 167 163 159 161 160 155 151 151 151 155 157 173 168 175 180 149 172 156 107 114 133 132 115 230 119 182 113 124 165 278 297 335 292 221
238 235 230 204 189 191 177 189 170 173 180 174 169 168 169 167 164 159 164 167 166 161 160 169 163 159 176 167 174 188 147 152 84 109 126 145 155 145 17 64 59 89 209 168 250 260 248 281 282
240 242 248 232 222 220 209 206 172 170 177 173 172 172 174 171 166 165 168 170 172 166 164 159 155 156 161 167 188 190 184 179 167 150 120 118 59 73 103 97 94 247 282 86 257 158 274 270 289
241 248 258 256 244 241 218 228 177 173 181 177 176 175 174 169 166 165 167 167 171 167 161 155 148 149 151 169 189 203 212 173 127 107 107 113 105 16 45 113 121 165 239 326 349 15 306 317 313
242 243 251 253 251 241 223 227 190 179 182 181 172 171 166 161 159 157 159 154 158 160 155 151 144 148 155 170 179 185 221 184 116 117 137 169 165 186 175 121 105 124 186 354 17 294 315 345 328
230 234 239 246 244 241 230 221 184 156 168 172 167 167 165 159 157 157 158 156 157 157 151 149 148 154 161 170 177 175 197 192 185 198 185 210 181 154 134 109 101 96 139 134 252 246 317 312 334
223 232 234 240 244 247 231 218 174 157 156 157 154 152 157 160 158 159 160 158 160 160 154 149 147 153 162 169 169 169 178 189 194 194 217 192 158 101 99 110 120 127 63 25 195 153 268 284 277
232 232 240 248 260 267 240 185 172 164 156 150 154 156 159 166 160 159 161 161 161 161 157 155 149 152 157 159 159 156 162 181 192 146 174 23 67 102 92 105 112 90 86 66 78 76 325 333 357
246 249 250 246 254 258 249 225 190 166 160 156 166 160 160 167 161 156 157 155 156 157 154 154 151 151 152 159 165 163 157 157 154 121 128 88 65 61 85 93 78 67 48 26 25 66 17 62 51
227 238 248 262 262 255 261 238 189 156 159 165 169 164 163 161 161 157 156 154 157 158 159 155 152 152 154 156 155 143 137 144 143 138 132 124 107 103 101 97 82 77 50 36 39 54 51 71 63
241 240 241 249 262 268 271 274 145 150 169 169 164 161 155 154 155 154 155 154 154 156 156 154 155 156 155 154 148 145 135 131 134 140 137 133 127 123 118 101 85 71 79 82 76 50 60 62 58
Height
1468 1468 1469 1472 1471 1471 1476 1474 1472 1472 1474 1477 1478 1481 1487 1490 1497 1509 1510 1509 1509 1508 1507 1507 1506 1506 1506 1506 1506 1505 1506 1506 1506 1506 1506 1507 1508 1509 1511 1513 1515 1516 1518 1520 1521 1523 1524 1526 1528
1468 1469 1473 1471 1470 1480 1484 1476 1476 1477 1479 1481 1483 1487 1492 1497 1502 1507 1510 1511 1511 1511 1510 1509 1508 1508 1508 1508 1508 1508 1508 1508 1508 1508 1509 1509 1510 1512 1513 1515 1517 1519 1521 1522 1524 1525 1527 1528 1530
1468 1471 1473 1466 1469 1480 1484 1477 1478 1479 1481 1484 1488 1493 1498 1504 1507 1509 1512 1513 1513 1512 1512 1511 1510 1510 1510 1510 1510 1511 1511 1511 1511 1511 1512 1512 1513 1514 1516 1518 1520 1522 1523 1525 1526 1528 1530 1531 1533
1470 1471 1469 1467 1475 1475 1476 1477 1478 1481 1484 1486 1491 1499 1505 1508 1511 1513 1514 1515 1515 1515 1514 1513 1513 1513 1513 1513 1513 1514 1514 1514 1514 1514 1515 1515 1516 1517 1519 1521 1522 1524 1526 1527 1529 1530 1532 1534 1536
1472 1470 1468 1472 1475 1475 1475 1477 1480 1483 1487 1492 1497 1504 1510 1513 1514 1515 1516 1517 1517 1517 1516 1516 1516 1515 1515 1516 1516 1517 1517 1517 1517 1518 1518 1519 1520 1521 1522 1523 1525 1527 1529 1530 1532 1533 1535 1536 1538
1470 1465 1471 1478 1479 1477 1478 1480 1483 1487 1491 1496 1501 1507 1513 1517 1517 1518 1518 1519 1520 1519 1518 1518 1518 1518 1518 1519 1519 1520 1520 1520 1521 1521 1522 1523 1524 1525 1525 1527 1528 1530 1532 1533 1534 1536 1537 1539 1540
1466 1462 1470 1474 1479 1481 1480 1482 1485 1489 1492 1497 1502 1508 1515 1518 1519 1520 1521 1521 1522 1522 1521 1521 1521 1521 1522 1522 1522 1523 1523 1524 1525 1525 1526 1527 1527 1528 1529 1530 1532 1533 1534 1536 1537 1538 1540 1541 1542
1463 1462 1469 1472 1479 1484 1483 1485 1488 1492 1496 1499 1502 1509 1516 1520 1521 1522 1523 1524 1525 1525 1525 1525 1525 1524 1525 1525 1526 1526 1527 1527 1528 1529 1530 1531 1531 1532 1533 1534 1535 1536 1537 1538 1540 1541 1542 1543 1544
1463 1467 1473 1473 1478 1483 1484 1488 1492 1496 1499 1502 1505 1510 1516 1520 1522 1523 1525 1526 1527 1527 1528 1528 1528 1528 1528 1528 1529 1529 1530 1530 1531 1532 1533 1533 1534 1535 1536 1537 1538 1539 1540 1541 1542 1543 1544 1545 1546
1462 1470 1472 1470 1474 1479 1484 1488 1492 1497 1501 1507 1511 1515 1518 1521 1523 1525 1526 1527 1528 1529 1530 1530 1531 1531 1532 1532 1531 1532 1533 1533 1534 1535 1535 1536 1538 1539 1540 1540 1541 1541 1542 1543 1544 1545 1546 1546 1547
1464 1468 1470 1472 1476 1480 1484 1487 1491 1496 1502 1509 1513 1517 1520 1522 1524 1526 1527 1528 1530 1530 1531 1532 1532 1533 1534 1534 1534 1535 1535 1536 1537 1538 1538 1539 1540 1541 1541 1542 1543 1543 1544 1545 1545 1546 1547 1548 1549
1467 1469 1472 1475 1478 1481 1486 1489 1493 1497 1505 1510 1514 1518 1521 1523 1525 1527 1529 1530 1531 1532 1532 1533 1533 1534 1534 1535 1536 1537 1538 1538 1539 1539 1540 1541 1542 1542 1542 1543 1544 1544 1545 1546 1546 1547 1548 1549 1550
1469 1472 1476 1478 1481 1484 1488 1492 1497 1502 1507 1512 1516 1519 1522 1524 1526 1528 1530 1531 1532 1533 1533 1534 1534 1535 1536 1536 1537 1539 1539 1539 1540 1541 1541 1542 1543 1543 1543 1544 1545 1546 1547 1547 1547 1548 1549 1549 1550
1471 1473 1476 1479 1482 1486 1490 1495 1499 1506 1510 1513 1517 1520 1522 1524 1527 1529 1530 1532 1533 1533 1534 1535 1535 1535 1536 1537 1538 1539 1540 1541 1542 1542 1542 1543 1543 1544 1544 1545 1546 1546 1547 1548 1548 1548 1549 1550 1550
1473 1474 1477 1479 1482 1486 1490 1497 1500 1506 1510 1514 1517 1520 1522 1525 1527 1529 1531 1532 1533 1534 1534 1535 1536 1536 1537 1538 1539 1540 1541 1541 1542 1542 1543 1544 1544 1544 1545 1545 1546 1547 1548 1548 1549 1549 1549 1549 1550
1474 1478 1486 1480 1480 1484 1491 1505 1501 1505 1508 1512 1516 1519 1522 1525 1527 1529 1531 1532 1533 1534 1535 1536 1537 1537 1537 1539 1539 1541 1542 1542 1543 1543 1544 1544 1544 1545 1545 1545 1546 1547 1547 1548 1549 1549 1549 1549 1549
1479 1486 1489 1483 1478 1481 1487 1499 1499 1503 1506 1510 1514 1518 1522 1525 1527 1529 1531 1532 1533 1534 1535 1536 1537 1537 1538 1539 1540 1541 1542 1542 1543 1544 1544 1544 1544 1545 1545 1545 1546 1546 1547 1548 1548 1549 1549 1549 1549
1487 1484 1484 1485 1478 1478 1485 1492 1497 1499 1502 1507 1512 1516 1520 1523 1526 1528 1530 1532 1533 1534 1535 1536 1537 1537 1538 1539 1540 1541 1542 1543 1543 1543 1544 1544 1544 1545 1545 1545 1545 1546 1547 1547 1548 1548 1548 1549 1549
1474 1479 1483 1479 1474 1478 1484 1490 1493 1496 1499 1503 1508 1513 1518 1521 1524 1527 1529 1531 1532 1533 1534 1536 1537 1537 1538 1539 1540 1541 1542 1543 1543 1543 1544 1544 1544 1544 1544 1544 1545 1545 1546 1546 1547 1547 1548 1548 1549
1473 1479 1481 1476 1473 1477 1483 1487 1487 1491 1495 1499 1504 1509 1514 1518 1522 1525 1528 1530 1531 1532 1533 1535 1536 1537 1538 1539 1540 1541 1542 1542 1543 1544 1544 1544 1544 1544 1545 1544 1544 1545 1545 1545 1546 1547 1547 1548 1548
1473 1477 1479 1480 1475 1474 1483 1492 1487 1488 1492 1496 1501 1506 1511 1515 1520 1523 1526 1529 1530 1531 1532 1534 1535 1536 1537 1539 1539 1540 1541 1542 1543 1544 1543 1543 1544 1544 1544 1544 1544 1544 1544 1545 1545 1546 1546 1547 1547
1479 1470 1472 1475 1483 1487 1485 1504 1491 1487 1489 1493 1498 1502 1507 1512 1517 1520 1524 1527 1529 1530 1531 1533 1534 1535 1537 1538 1539 1540 1541 1542 1543 1543 1543 1543 1543 1543 1543 1543 1544 1543 1544 1544 1544 1545 1545 1546 1546
1472 1468 1471 1473 1480 1487 1485 1497 1495 1485 1491 1490 1494 1498 1503 1508 1513 1518 1522 1525 1527 1529 1531 1532 1533 1535 1536 1537 1538 1539 1541 1542 1542 1543 1543 1543 1543 1543 1543 1543 1543 1543 1543 1543 1544 1544 1544 1544 1545
1467 1470 1473 1474 1480 1499 1488 1496 1501 1485 1487 1486 1490 1495 1500 1506 1511 1516 1520 1523 1526 1528 1530 1531 1532 1534 1535 1536 1537 1538 1540 1541 1541 1542 1542 1542 1542 1542 1542 1542 1542 1542 1542 1543 1543 1543 1543 1543 1543
1470 1483 1500 1506 1506 1501 1480 1488 1491 1475 1475 1481 1486 1492 1497 1503 1508 1513 1518 1521 1524 1527 1529 1530 1531 1533 1534 1535 1537 1538 1539 1540 1540 1541 1541 1541 1542 1541 1542 1542 1541 1542 1542 1542 1542 1542 1542 1542 1542
1472 1479 1502 1516 1514 1499 1482 1488 1480 1470 1472 1478 1483 1489 1495 1501 1506 1511 1515 1519 1522 1525 1528 1529 1530 1531 1533 1534 1536 1537 1538 1539 1540 1540 1541 1541 1541 1541 1541 1541 1541 1541 1541 1541 1541 1541 1541 1541 1541
1472 1474 1472 1487 1494 1500 1489 1482 1476 1470 1473 1477 1482 1488 1494 1499 1503 1508 1513 1517 1520 1523 1526 1528 1529 1530 1532 1533 1535 1536 1537 1538 1539 1539 1539 1540 1540 1540 1540 1540 1540 1540 1540 1540 1540 1540 1540 1540 1540
1466 1468 1474 1486 1506 1512 1499 1489 1484 1477 1476 1478 1482 1487 1492 1497 1501 1506 1510 1514 1518 1521 1524 1526 1528 1529 1530 1532 1534 1535 1536 1537 1537 1537 1538 1538 1538 1539 1539 1539 1539 1540 1539 1540 1540 1539 1540 1539 1539
1471 1472 1474 1478 1483 1502 1509 1496 1467 1470 1473 1476 1481 1486 1490 1495 1499 1503 1508 1512 1516 1520 1522 1524 1526 1528 1529 1531 1533 1534 1535 1535 1536 1536 1536 1537 1537 1537 1538 1538 1538 1539 1538 1538 1539 1539 1539 1539 1539
1465 1469 1473 1489 1491 1489 1498 1494 1463 1466 1470 1474 1479 1484 1489 1493 1497 1501 1506 1510 1514 1518 1521 1523 1525 1527 1528 1530 1531 1532 1534 1534 1534 1535 1535 1536 1536 1536 1537 1537 1538 1538 1538 1538 1538 1538 1539 1539 1539